Location: Home
(42.5358°N, 72.7383°W)
Time: 16:56:10
(UTC-04:00)

Explorer 11/Cluster Stage 4 - Pass Details

Date: 03 August 2024
Orbit: 464 x 1208 km, 28.8° (Epoch: 19 September)

Event Time Altitude Azimuth Distance (km) Brightness Sun altitude
Rises 07:05:57 0° 258° (WSW) 4,088 9.6 13.2°
Reaches altitude 10° 07:10:09 10° 239° (WSW) 3,059 9.1 13.9°
Maximum altitude 07:14:29 16° 204° (SSW) 2,515 8.9 14.7°
Drops below altitude 10° 07:18:32 10° 169° (SSE) 2,819 9.5 15.5°
Sets 07:22:10 0° 148° (SSE) 3,622 10.3 16.1°
